    Observer details:
    104 San Marcello Pistoiese.  Observers P. Bacci, M. Maestripieri, M. D.
        Grazia, T. Giovannetti.  Measurers P. Bacci, L. Tesi, G. Fagioli.  0.60-m
        F4 Reflector + CCD.
    203 GiaGa Observatory.  Observers S. Foglia, G. Galli.  Measurer G. Galli.
        0.36-m f/5.76 Schmidt-Cassegrain + CCD.
    204 Schiaparelli Observatory.  Observer L. Buzzi.  0.84-m f/3.5 reflector +
        CCD.
    595 Farra d'Isonzo.  Observers N. Moretta, E. Pettarin.  Measurer E.
        Pettarin.  0.61-m f/4.5 reflector + CCD.
    654 Table Mountain Observatory, Wrightwood-PHMC.  Observers N. Evans, P. Choi,
        N. Saini, C. Zhai, R. Trahan, M. Shao.  1.0-m Reflector + CCD.
    B72 Soerth.  Observer B. Koch.  0.36-m f/7.6 Schmidt-Cassegrain + CMO.
    C95 SATINO Remote Observatory, Haute Provence.  Observers D. Husar, K. Meo.
        Measurer D. Husar.  0.30-m f/5.8 reflector + CCD.
    E23 Arcadia.  Observer A. Hidas.  0.35-m f/1.9 reflector + CCD.
    G34 Oberfrauendorf.  Observer T. Felber.  0.35-m f/6.3 Schmidt-Cassegrain +
        CCD.
    H21 Astronomical Research Observatory, Westfield.  Observer R. Holmes.
        Measurers T. Linder, R. Holmes, L. Horn.  0.76-m f/3.0 astrograph + CCD.
    H36 Sandlot Observatory, Scranton.  Observer G. Hug.  0.56-m f/4.2 .56 meter
        reflector + CMOS.
    I93 St Pardon de Conques.  Observer F. Losse.  0.40-m f/3.7 reflector + CMO.
    J95 Great Shefford.  Observer P. Birtwhistle.  0.41-m f/6.3 Schmidt-Cassegrain
        + CCD.
    K74 Muensterschwarzach Observatory, Schwarzach.  Observer C. Gerhard.  0.30-m
        f/3.75 reflector + CMO.
    K83 Beppe Forti Astronomical Observatory, Montelupo.  Observers M. Tombelli,
        A. Mazzanti, F. Cheli, G. Bimbi, G. Gambacciani.  Measurers M. Tombelli,
        F. Bernardi.  0.40-m f/8 Ritchey-Chretien + CCD.
    L01 Visnjan Observatory, Tican.  Observer K. Korlevic.  1.0-m f/2.9 reflector
        + CCD.
    M22 ATLAS South Africa, Sutherland.  Observers L. Denneau, R. Siverd, J.
        Tonry, H. Weiland.  Measurers L. Denneau, N. Erasmus, A. Fitzsimmons, A.
        Lawrence, J. Robinson, R. Siverd, J. Tonry, H. Weiland.  0.5-m Reflector +
        CCD.
    M28 Lesedi Telescope-SAAO Observatory, Sutherland.  Observers N. Erasmus, S.
        Potter, C. van Gend, S. Chandra.  Measurers N. Erasmus, T. Ngwane.  1.0-m
        f/8 Reflector + CCD.
    Y05 SONEAR Wykrota-CEAMIG, Serra da Piedade.  Observer C. Jacques.  0.45-m
        f/2.9 reflector + CMO.
    
    Orbital elements:
    2023 MB4                                                 Earth MOID = 0.0202 AU
    Epoch 2023 Feb. 25.0 TT = JDT 2460000.5                 Veres                   
    M 307.14758              (2000.0)            P               Q                  
    n   0.72883402     Peri.  313.34937     -0.72099167     +0.65940227             
    a   1.2228794      Node   269.11668     -0.55806454     -0.73474406             
    e   0.1930162      Incl.   12.29842     -0.41077364     -0.15918484             
    P   1.35           H   25.47          G   0.15           U   7                  
    Residuals in seconds of arc
    230623 M22  0.0   1.6+    230624 654  0.0   0.1-    230624 B72  0.8-  0.4-
    230623 M22  0.0   0.6-    230624 654  0.2-  0.1-    230624 595  0.3-  0.2-
    230623 M22  0.5+  0.8+    230624 E23  0.2-  0.7+    230624 C95  0.0   0.3+
    230623 M22  0.5-  2.3-    230624 E23  0.6-  1.1+    230624 K83  0.2-  0.3-
    230624 I93  0.7-  0.2-    230624 E23  0.4+  0.5+    230624 G34  0.3-  0.3+
    230624 I93  0.1+  0.1+    230624 C95  0.1-  0.1+    230624 K74  0.1+  0.4+
    230624 I93  0.4-  0.0     230624 203  0.3+  0.3-    230624 B72  0.2+  0.1-
    230624 M28  0.9+  1.3-    230624 595  0.0   1.0+    230624 B72  0.3+  0.2+
    230624 J95  0.0   0.1-    230624 C95  0.5-  0.0     230624 C95  0.0   0.1+
    230624 M28  0.9+  1.6-    230624 203  0.3-  0.1-    230624 595  0.4-  0.1-
    230624 M28  1.1+  1.8-    230624 L01  0.0   0.4+    230624 B72  0.4-  0.3-
    230624 J95  0.1-  0.2-    230624 L01  0.3-  0.0     230624 595  0.1+  0.5-
    230624 M28  1.3+  0.9-    230624 C95  0.5-  0.0     230624 104  0.3-  0.2+
    230624 Y05  0.4-  0.2+    230624 L01  0.3-  0.2+    230624 104  0.3-  0.1+
    230624 Y05  0.4-  0.1+    230624 L01  0.0   0.2+    230624 204  0.0   0.1+
    230624 Y05  0.2-  0.3+    230624 L01  0.4+  0.4+    230624 104  0.2-  0.2+
    230624 H21  0.4-  0.0     230624 C95  0.0   0.1+    230624 204  0.3+  0.1-
    230624 H21  0.1-  0.0     230624 G34  0.4+  0.8+    230625 H21  0.2-  0.2-
    230624 H21  0.0   0.1+    230624 203  0.2-  0.0     230625 H21  0.0   0.3-
    230624 H21  0.1+  0.0     230624 K83  0.3-  0.5+    230625 H21  0.1-  0.1-
    230624 654  0.3+  0.1-    230624 K74  0.2+  0.3+    230625 H21  0.4-  0.0
    230624 654  0.1+  0.1-    230624 B72  0.2+  0.3+    230625 654  0.2+  0.0
    230624 H36  0.1-  0.3+    230624 G34  0.2+  0.0     230625 654  0.1+  0.1-
    230624 H36  0.1-  0.1+    230624 K83  0.2-  0.4+    230625 654  0.0   0.1-
    230624 H36  0.4+  0.6+    230624 K74  0.1+  0.4+    230625 654  0.1+  0.1-
    
    Ephemeris:
    2023 MB4                 a,e,i = 1.22, 0.19, 12                  q = 0.9868
    Date    TT    R. A. (2000) Decl.     Delta      r    Elong.  Phase     V
    2023 05 26    07 10 29.7 -44 53 49   0.1071  0.9957    77.8    96.2    24.1
    ...
    2023 06 10    08 30 53.9 -57 13 16   0.04655 1.0166    90.5    86.9    21.9
    ...
    2023 06 18    14 32 53.5 -52 55 22   0.02305 1.0320   133.6    45.5    19.1
    ...
    2023 06 24    17 05 04.0 -05 04 46   0.03144 1.0452   156.1    23.2    19.2
    2023 06 25    17 14 37.6 -00 20 13   0.03478 1.0475   153.0    26.2    19.5
    2023 06 26    17 22 29.0 +03 31 56   0.03838 1.0499   150.0    28.9    19.8
    ...
    2023 07 02    17 50 22.0 +16 10 57   0.06281 1.0647   138.8    39.0    21.1
    ...
    2023 07 10    18 07 06.6 +21 52 07   0.09833 1.0859   132.8    43.3    22.3
    ...
    2023 07 25    18 23 35.8 +23 32 04   0.1684  1.1291   128.8    44.5    23.6
    
    M. P. C. Staff               (C) Copyright 2023 MPC           M.P.E.C. 2023-M131
    


    Read MPEC 2023-M130 Read MPEC 2023-M132


    MPEC number:

    Enter an MPEC number in one of the following forms:

    • 1997-B01 (the full form)
    • J97B01 (the packed version of the full form)
    • B01 (the abbreviated form)